This is the latest recevied weather packets stored in our database for station/object KD7CIH. If no packets are shown the sender has not sent any weather packets the latest 10 day(s).
| Time | Temp. | Humidity | Pressure | Rain* | Wind** | Luminosity | Snow |
|---|---|---|---|---|---|---|---|
| 1788531557 | 12.78° C | 44% | 1013 hPa | 0 mm | - | - | - |
| 1788531127 | 12.22° C | 45% | 1013 hPa | 0 mm | - | - | - |
| 1788530955 | 11.67° C | 47% | 1013 hPa | 0 mm | - | - | - |
| 1788530528 | 11.11° C | 49% | 1012.9 hPa | 0 mm | - | - | - |
| 1788530227 | 11.11° C | 50% | 1012.9 hPa | 0 mm | - | - | - |
| 1788529927 | 10.56° C | 51% | 1012.8 hPa | 0 mm | - | - | - |
| 1788529628 | 10° C | 53% | 1012.8 hPa | 0 mm | - | - | - |
| 1788529328 | 9.44° C | 53% | 1012.7 hPa | 0 mm | - | - | - |
| 1788529165 | 9.44° C | 54% | 1012.7 hPa | 0 mm | - | - | - |
| 1788528728 | 8.89° C | 54% | 1012.5 hPa | 0 mm | - | - | - |
| 1788528427 | 8.89° C | 54% | 1012.5 hPa | 0 mm | - | - | - |
| 1788528254 | 8.89° C | 53% | 1012.5 hPa | 0 mm | - | - | - |
| 1788527826 | 9.44° C | 51% | 1012.4 hPa | 0 mm | - | - | - |
| 1788527528 | 9.44° C | 52% | 1012.3 hPa | 0 mm | - | - | - |
| 1788527228 | 9.44° C | 51% | 1012.4 hPa | 0 mm | - | - | - |
| 1788526926 | 9.44° C | 50% | 1012.3 hPa | 0 mm | - | - | - |
| 1788526626 | 10° C | 49% | 1012.2 hPa | 0 mm | - | - | - |
| 1788526454 | 10° C | 48% | 1012 hPa | 0 mm | - | - | - |
| 1788526028 | 9.44° C | 50% | 1011.8 hPa | 0 mm | - | - | - |
| 1788525725 | 8.89° C | 53% | 1011.8 hPa | 0 mm | - | - | - |
| 1788525426 | 8.33° C | 55% | 1011.8 hPa | 0 mm | - | - | - |
| 1788525128 | 7.78° C | 56% | 1011.8 hPa | 0 mm | - | - | - |
| 1788524825 | 8.33° C | 56% | 1011.7 hPa | 0 mm | - | - | - |
| 1788524526 | 8.33° C | 55% | 1011.6 hPa | 0 mm | - | - | - |
| 1788524225 | 8.33° C | 54% | 1011.6 hPa | 0 mm | - | - | - |
* Rain latest hour (hover to see other rain measurements)
** Current wind speed in m/s (hover to see current wind gust speed)